When you browse on this site, cookies collect data to enhance your experience and personalize the content and advertising you see.
Visit our Privacy Policy to learn more. By continuing to use the site, you agree to this use of cookies and data.
  • In Czech Republic
  • List of Countries
  • For 7 days
  • Water Temperature
  • Weather Map
  • Weather Widgets
  • user-avatar
    Login

    Hourly Weather Ischgl

    Today, 20 August, Tuesday

    Time Temperature Precipitation Wind Pressure Humidity
    00:00 +8°C° 0.2 mm 0 mps 579 mmHg 95%
    01:00 +8°C° 0.2 mm 0 mps 579 mmHg 94%
    02:00 +8°C° 0.2 mm 0 mps 579 mmHg 95%
    03:00 +8°C° 0.2 mm 0 mps 579 mmHg 96%
    04:00 +8°C° 0.2 mm 0 mps 579 mmHg 96%
    05:00 +8°C° 0.7 mm 0 mps 579 mmHg 96%
    06:00 +9°C° 0.7 mm 1 mps 579 mmHg 96%
    07:00 +9°C° 0.7 mm 1 mps 579 mmHg 96%
    08:00 +10°C° 1.2 mm 1 mps 579 mmHg 94%
    09:00 +10°C° 1.2 mm 1 mps 579 mmHg 91%
    10:00 +10°C° 1.2 mm 2 mps 579 mmHg 88%
    11:00 +12°C° 0.4 mm 2 mps 580 mmHg 83%
    12:00 +12°C° 0.4 mm 2 mps 580 mmHg 79%
    13:00 +13°C° 0.4 mm 2 mps 581 mmHg 74%
    14:00 +13°C° 0.4 mm 2 mps 580 mmHg 76%
    15:00 +13°C° 0.4 mm 2 mps 580 mmHg 77%
    16:00 +12°C° 0.4 mm 2 mps 580 mmHg 79%
    17:00 +10°C° 0.7 mm 2 mps 580 mmHg 85%
    18:00 +9°C° 0.7 mm 2 mps 579 mmHg 90%
    19:00 +7°C° 0.7 mm 2 mps 579 mmHg 95%
    20:00 +7°C° 0.7 mm 2 mps 579 mmHg 96%
    21:00 +6°C° 0.7 mm 2 mps 579 mmHg 96%
    22:00 +6°C° 0.7 mm 2 mps 579 mmHg 97%
    23:00 +5°C° 1.7 mm 2 mps 579 mmHg 97%

    Tomorrow, 21 August, Wednesday

    Time Temperature Precipitation Wind Pressure Humidity
    00:00 +4°C° 1.7 mm 2 mps 579 mmHg 96%
    01:00 +3°C° 1.7 mm 2 mps 578 mmHg 96%
    02:00 +3°C° 1.2 mm 2 mps 578 mmHg 96%
    03:00 +3°C° 1.2 mm 2 mps 578 mmHg 96%
    04:00 +3°C° 1.2 mm 2 mps 578 mmHg 96%
    05:00 +4°C° 0.2 mm 1 mps 578 mmHg 95%
    06:00 +5°C° 0.2 mm 1 mps 579 mmHg 94%
    07:00 +5°C° 0.2 mm 1 mps 579 mmHg 92%
    08:00 +7°C° 0 mm 1 mps 580 mmHg 88%
    09:00 +8°C° 0 mm 1 mps 580 mmHg 83%
    10:00 +10°C° 0 mm 1 mps 581 mmHg 78%
    11:00 +12°C° 0 mm 1 mps 582 mmHg 71%
    12:00 +13°C° 0 mm 1 mps 582 mmHg 64%
    13:00 +15°C° 0 mm 2 mps 583 mmHg 58%
    14:00 +15°C° 0.3 mm 2 mps 583 mmHg 60%
    15:00 +14°C° 0.3 mm 2 mps 582 mmHg 62%
    16:00 +14°C° 0.3 mm 2 mps 582 mmHg 65%
    17:00 +13°C° 0.3 mm 2 mps 581 mmHg 73%
    18:00 +11°C° 0.3 mm 1 mps 581 mmHg 81%
    19:00 +9°C° 0.3 mm 1 mps 580 mmHg 90%
    20:00 +9°C° 0.1 mm 1 mps 580 mmHg 90%
    21:00 +8°C° 0.1 mm 1 mps 580 mmHg 90%
    22:00 +8°C° 0.1 mm 1 mps 580 mmHg 90%
    23:00 +8°C° 0.1 mm 1 mps 580 mmHg 90%

    Day after tomorrow, 22 August, Thursday

    Time Temperature Precipitation Wind Pressure Humidity
    00:00 +8°C° 0.1 mm 1 mps 579 mmHg 89%
    01:00 +7°C° 0.1 mm 1 mps 579 mmHg 88%
    02:00 +7°C° 0 mm 1 mps 579 mmHg 88%
    03:00 +6°C° 0 mm 1 mps 579 mmHg 88%
    04:00 +6°C° 0 mm 1 mps 578 mmHg 88%
    05:00 +7°C° 0 mm 1 mps 579 mmHg 84%
    06:00 +8°C° 0 mm 0 mps 580 mmHg 81%
    07:00 +9°C° 0 mm 0 mps 581 mmHg 77%
    08:00 +11°C° 0 mm 0 mps 582 mmHg 70%
    09:00 +12°C° 0 mm 0 mps 582 mmHg 62%
    10:00 +15°C° 0 mm 1 mps 583 mmHg 55%
    11:00 +16°C° 0.1 mm 1 mps 583 mmHg 52%
    12:00 +16°C° 0.1 mm 1 mps 584 mmHg 50%
    13:00 +18°C° 0.1 mm 1 mps 584 mmHg 47%
    14:00 +16°C° 0.5 mm 2 mps 583 mmHg 54%
    15:00 +16°C° 0.5 mm 2 mps 583 mmHg 60%
    16:00 +15°C° 0.5 mm 2 mps 582 mmHg 66%
    17:00 +14°C° 0.7 mm 2 mps 582 mmHg 74%
    18:00 +12°C° 0.7 mm 2 mps 581 mmHg 82%
    19:00 +11°C° 0.7 mm 1 mps 581 mmHg 91%
    20:00 +10°C° 0.4 mm 1 mps 581 mmHg 92%
    21:00 +9°C° 0.4 mm 1 mps 581 mmHg 93%
    22:00 +7°C° 0.4 mm 0 mps 581 mmHg 94%
    23:00 +7°C° 0 mm 0 mps 580 mmHg 94%

    23 August, Friday

    Time Temperature Precipitation Wind Pressure Humidity
    00:00 +7°C° 0 mm 0 mps 580 mmHg 94%
    01:00 +6°C° 0 mm 0 mps 580 mmHg 93%
    02:00 +6°C° 0 mm 0 mps 580 mmHg 92%
    03:00 +6°C° 0 mm 0 mps 579 mmHg 91%
    04:00 +7°C° 0 mm 1 mps 579 mmHg 89%
    05:00 +8°C° 0 mm 1 mps 580 mmHg 87%
    06:00 +9°C° 0 mm 1 mps 580 mmHg 84%
    07:00 +10°C° 0 mm 1 mps 581 mmHg 81%
    08:00 +12°C° 0 mm 1 mps 582 mmHg 73%
    09:00 +14°C° 0 mm 1 mps 583 mmHg 64%
    10:00 +16°C° 0 mm 1 mps 584 mmHg 55%
    11:00 +16°C° 0.2 mm 1 mps 584 mmHg 53%
    12:00 +18°C° 0.2 mm 1 mps 584 mmHg 51%
    13:00 +18°C° 0.2 mm 1 mps 584 mmHg 49%
    14:00 +18°C° 1.1 mm 1 mps 583 mmHg 56%
    15:00 +16°C° 1.1 mm 1 mps 583 mmHg 62%
    16:00 +15°C° 1.1 mm 1 mps 582 mmHg 69%
    17:00 +14°C° 0.9 mm 1 mps 582 mmHg 74%
    18:00 +13°C° 0.9 mm 1 mps 581 mmHg 79%
    19:00 +11°C° 0.9 mm 0 mps 581 mmHg 85%
    20:00 +11°C° 0.2 mm 1 mps 581 mmHg 84%
    21:00 +11°C° 0.2 mm 1 mps 580 mmHg 84%
    22:00 +10°C° 0.2 mm 1 mps 580 mmHg 84%
    23:00 +9°C° 0 mm 1 mps 580 mmHg 84%

    24 August, Saturday

    Time Temperature Precipitation Wind Pressure Humidity
    00:00 +9°C° 0 mm 1 mps 580 mmHg 84%
    01:00 +7°C° 0 mm 2 mps 579 mmHg 84%
    02:00 +7°C° 0 mm 2 mps 579 mmHg 84%
    03:00 +7°C° 0 mm 2 mps 579 mmHg 84%
    04:00 +6°C° 0 mm 2 mps 578 mmHg 84%
    05:00 +7°C° 0 mm 2 mps 579 mmHg 83%
    06:00 +8°C° 0 mm 2 mps 579 mmHg 81%
    07:00 +9°C° 0 mm 2 mps 580 mmHg 79%
    08:00 +12°C° 0 mm 2 mps 581 mmHg 70%
    09:00 +14°C° 0 mm 1 mps 582 mmHg 62%
    10:00 +16°C° 0 mm 1 mps 583 mmHg 53%
    11:00 +18°C° 0.1 mm 1 mps 583 mmHg 50%
    12:00 +18°C° 0.1 mm 1 mps 583 mmHg 47%
    13:00 +19°C° 0.1 mm 1 mps 583 mmHg 45%
    14:00 +18°C° 1 mm 1 mps 582 mmHg 51%
    15:00 +16°C° 1 mm 1 mps 582 mmHg 57%
    16:00 +16°C° 1 mm 1 mps 581 mmHg 63%
    17:00 +14°C° 1.1 mm 1 mps 581 mmHg 70%
    18:00 +13°C° 1.1 mm 1 mps 580 mmHg 77%
    19:00 +11°C° 1.1 mm 1 mps 579 mmHg 84%
    20:00 +11°C° 0.4 mm 1 mps 579 mmHg 85%
    21:00 +10°C° 0.4 mm 1 mps 579 mmHg 85%
    22:00 +10°C° 0.4 mm 1 mps 579 mmHg 86%
    23:00 +9°C° 0 mm 1 mps 579 mmHg 86%

    25 August, Sunday

    Time Temperature Precipitation Wind Pressure Humidity
    00:00 +8°C° 0 mm 1 mps 578 mmHg 86%
    01:00 +8°C° 0 mm 1 mps 578 mmHg 86%
    02:00 +8°C° 0 mm 1 mps 578 mmHg 85%
    03:00 +7°C° 0 mm 1 mps 577 mmHg 85%
    04:00 +7°C° 0 mm 1 mps 577 mmHg 85%
    05:00 +8°C° 0 mm 1 mps 578 mmHg 83%
    06:00 +10°C° 0 mm 1 mps 579 mmHg 81%
    07:00 +11°C° 0 mm 1 mps 579 mmHg 78%
    08:00 +12°C° 0 mm 1 mps 580 mmHg 71%
    09:00 +14°C° 0 mm 1 mps 581 mmHg 64%
    10:00 +15°C° 0 mm 1 mps 581 mmHg 57%
    11:00 +16°C° 0.7 mm 1 mps 582 mmHg 56%
    12:00 +18°C° 0.7 mm 1 mps 582 mmHg 54%
    13:00 +18°C° 0.7 mm 1 mps 582 mmHg 53%
    14:00 +18°C° 1.3 mm 1 mps 581 mmHg 58%
    15:00 +16°C° 1.3 mm 1 mps 581 mmHg 63%
    16:00 +15°C° 1.3 mm 1 mps 580 mmHg 68%
    17:00 +14°C° 1.2 mm 1 mps 580 mmHg 74%
    18:00 +13°C° 1.2 mm 1 mps 579 mmHg 80%
    19:00 +11°C° 1.2 mm 0 mps 579 mmHg 86%
    20:00 +10°C° 0.5 mm 0 mps 579 mmHg 87%
    21:00 +10°C° 0.5 mm 0 mps 579 mmHg 87%
    22:00 +10°C° 0.5 mm 0 mps 579 mmHg 87%
    23:00 +9°C° 0 mm 0 mps 578 mmHg 88%
    Show more